Weather History for Rogers, AR

Change the Weather History Date:

Wednesday, November 21, 2012

  Actual Average Record
Temperature  
Mean Temperature 54 °F -  
Max Temperature 72 °F 54 °F 72 °F (2012)
Min Temperature 37 °F 36 °F 19 °F (2000)
Degree Days  
Heating Degree Days 10    
Growing Degree Days 4 (Base 50)    
Moisture  
Dew Point 37 °F    
Average Humidity 73    
Maximum Humidity 100    
Minimum Humidity 23    
Precipitation  
Precipitation 0.00 in - - ()
Sea Level Pressure  
Sea Level Pressure 30.23 in    
Wind  
Wind Speed 4 mph (SE)    
Max Wind Speed 12 mph    
Max Gust Speed -    
Visibility 5 miles    
Events Fog    
Averages and records for this station are not official NWS values.
T = Trace of Precipitation, MM = Missing Value Source: NWS Daily Summary

Daily Weather History Graph

Daily Weather History Graph

Search for Another Location

Airport:

Trip Planner

Search our weather history database for the weather conditions in past years. The results will help you decide how hot, cold, wet, or windy it might be!

Date:

Astronomy

Nov. 21, 2012 Rise Set
Actual Time 7:00 AM CST 5:04 PM CST
Civil Twilight 6:32 AM CST 5:32 PM CST
Nautical Twilight 6:01 AM CST 6:03 PM CST
Astronomical Twilight 5:30 AM CST 6:34 PM CST
Moon 1:11 PM CST (11/21) 12:30 AM CST (11/21)
Length of Visible Light 10h 59m
Length of Day
10h 04m
First Quarter, 62% of the Moon is Illuminated
Nov 21
First Quarter
Nov 28
Full
Dec 6
Last Quarter
Dec 13
New
Dec 19
First Quarter

Hourly Weather History & Observations

Time (CST) Temp. Windchill Dew Point Humidity Pressure Visibility Wind Dir Wind Speed Gust Speed Precip Events Conditions
12:57 AM 44.1 °F - 39.9 °F 85% 30.24 in 10.0 mi Calm Calm - N/A   Clear
1:57 AM 42.1 °F - 39.0 °F 89% 30.25 in 7.0 mi Calm Calm - N/A   Clear
3:57 AM 39.9 °F - 37.9 °F 93% 30.25 in 8.0 mi Calm Calm - N/A   Clear
6:28 AM 39.2 °F 33.6 °F 37.4 °F 93% 30.26 in 1.8 mi ESE 8.1 mph - N/A   Partly Cloudy
6:31 AM 39.2 °F 33.6 °F 37.4 °F 93% 30.26 in 0.8 mi East 8.1 mph - N/A   Mist
6:33 AM 39.2 °F 33.6 °F 37.4 °F 93% 30.26 in 0.5 mi ESE 8.1 mph - N/A Fog Fog
6:37 AM 39.2 °F 35.0 °F 37.4 °F 93% 30.26 in 0.2 mi SE 5.8 mph - N/A Fog Fog
6:45 AM 39.2 °F 37.0 °F 37.4 °F 93% 30.27 in 0.5 mi ESE 3.5 mph - N/A Fog Fog
6:48 AM 37.4 °F 34.9 °F 37.4 °F 100% 30.27 in 0.2 mi ESE 3.5 mph - N/A Fog Fog
6:57 AM 39.0 °F 34.0 °F 37.0 °F 93% 30.27 in 0.2 mi East 6.9 mph - N/A Fog Fog
7:07 AM 39.2 °F 35.0 °F 37.4 °F 93% 30.26 in 1.0 mi ESE 5.8 mph - N/A   Mostly Cloudy
7:10 AM 39.2 °F 35.0 °F 37.4 °F 93% 30.26 in 1.8 mi ESE 5.8 mph - N/A   Mostly Cloudy
7:15 AM 39.2 °F 35.0 °F 37.4 °F 93% 30.27 in 0.8 mi East 5.8 mph - N/A   Mist
7:19 AM 39.2 °F 34.2 °F 39.2 °F 100% 30.27 in 0.5 mi ESE 6.9 mph - N/A Fog Fog
7:34 AM 39.2 °F 35.9 °F 39.2 °F 100% 30.27 in 0.5 mi ESE 4.6 mph - N/A Fog Fog
7:38 AM 39.2 °F 35.0 °F 39.2 °F 100% 30.27 in 0.8 mi ESE 5.8 mph - N/A   Mist
7:42 AM 41.0 °F 36.4 °F 39.2 °F 93% 30.28 in 1.0 mi ESE 6.9 mph - N/A   Mist
7:50 AM 41.0 °F 39.0 °F 39.2 °F 93% 30.28 in 1.2 mi ESE 3.5 mph - N/A   Scattered Clouds
7:57 AM 42.1 °F - 41.0 °F 96% 30.29 in 2.0 mi Calm Calm - N/A   Partly Cloudy
8:05 AM 42.8 °F 41.1 °F 41.0 °F 93% 30.28 in 3.0 mi East 3.5 mph - N/A   Clear
8:57 AM 46.0 °F 43.9 °F 44.1 °F 93% 30.30 in 8.0 mi SSE 4.6 mph - N/A   Clear
9:57 AM 55.0 °F - 44.1 °F 67% 30.30 in 10.0 mi SE 3.5 mph - N/A   Clear
10:57 AM 63.0 °F - 37.9 °F 40% 30.28 in 10.0 mi South 4.6 mph - N/A   Clear
11:57 AM 68.0 °F - 33.1 °F 27% 30.25 in 10.0 mi South 6.9 mph - N/A   Clear
12:57 PM 71.1 °F - 32.0 °F 24% 30.21 in 10.0 mi SSW 4.6 mph - N/A   Clear
2:57 PM 72.0 °F - 32.0 °F 23% 30.16 in 10.0 mi South 9.2 mph - N/A   Clear
3:57 PM 71.1 °F - 34.0 °F 26% 30.15 in 10.0 mi South 5.8 mph - N/A   Clear
4:57 PM 68.0 °F - 32.0 °F 26% 30.16 in 10.0 mi SW 4.6 mph - N/A   Clear
5:57 PM 61.0 °F - 33.1 °F 35% 30.17 in 10.0 mi SSW 9.2 mph - N/A   Clear
6:57 PM 60.1 °F - 36.0 °F 41% 30.16 in 10.0 mi SSW 9.2 mph - N/A   Clear
7:57 PM 55.9 °F - 36.0 °F 47% 30.17 in 10.0 mi South 4.6 mph - N/A   Clear
8:57 PM 55.0 °F - 36.0 °F 49% 30.16 in 10.0 mi SSE 9.2 mph - N/A   Clear
9:57 PM 53.1 °F - 36.0 °F 52% 30.15 in 10.0 mi SE 10.4 mph - N/A   Clear
10:57 PM 52.0 °F - 37.0 °F 57% 30.12 in 10.0 mi SE 11.5 mph - N/A   Clear
11:57 PM 51.1 °F - 37.0 °F 59% 30.12 in 10.0 mi SE 10.4 mph - N/A   Clear